Torna al catalogo

DELTA 1 DEB

AttivoPO
NORAD 9710·DEBRIS·🇺🇸 United States

Lanciato Jan 22, 1975 da Vandenberg Space Force Base

Loading…

Prossimi Passaggi (prossime 24 ore)

TLE

AggiornatoSource: Space-Track

Epoca: Sep 14, 2026, 12:50 UTC

1 09710U 75004GU  26257.53510606  .00000178  00000-0  88602-4 0  9995
2 09710  97.6559 107.2753 0154620  34.5669 326.5447 14.20076736376728

Traccia DELTA 1 DEB in tempo reale con AllMySat

Download on the App Store